Location: Normandy Village
(37.8755°N, 122.2655°W)
Time: 10:46:04
(UTC+00:00)

PSLV R/B - Pass Details

Date: 22 September 2019
Orbit: 567 x 600 km, 98.1° (Epoch: 17 October)

Event Time Altitude Azimuth Distance (km) Brightness Sun altitude
Rises 12:03:49 0° 166° (SSE) 2,807 7.4 -22.7°
Reaches altitude 10° 12:05:59 10° 166° (SSE) 1,906 6.5 -22.3°
Maximum altitude 12:10:07 89° 74° (ENE) 589 3.8 -21.5°
Drops below altitude 10° 12:14:14 10° 348° (NNW) 1,900 6.6 -20.7°
Sets 12:16:23 0° 348° (NNW) 2,798 7.5 -20.3°
